Weather in Kuchynivka

Ukraine / Chernihiv Region     51°43′13″N   31°54′47″E
temp.,
°C
wind,
m/s
gust,
m/s
humid.,
%
clouds,
%
prec.,
mm/h
press.,
hPa
HPBL,
m
14 may, fri
fri1400:00+12se51273100 0.0 1011320
03:00+10se41079100 0.0 1011256
06:00+10ese4885100 0.4 1011185
09:00+14se587477 0.4 1010309
12:00+19se686415 0.0 10091137
15:00+20sse5767100 0.9 10071220
18:00+18s478174 3.0 1006400
21:00+14s33893 3.9 100728
15 may, sat
sat1500:00+12s34925 0.0 100755
03:00+11sse34945 0.0 100757
06:00+10s48979 0.0 1008207
09:00+13ssw5887100 0.0 1009495
12:00+14sw698597 0.1 1010695
15:00+17sw687262 0.1 1010905
18:00+18ssw57723 0.1 10101098
21:00+13ssw49935 0.3 1011239
16 may, sun
sun1600:00+10sw38965 0.0 1011169
03:00+10ssw36979 0.0 1013121
06:00+10ssw369711 0.0 1014121
09:00+15sw34780 0.0 1014421
12:00+19ssw34620 0.0 10141168
15:00+21s335639 0.0 10131534
18:00+21sse2465100 0.1 1012884
21:00+15ese3381100 0.4 101223
17 may, mon
mon1700:00+14e478641 0.0 101194
03:00+13e489090 0.0 1011131
06:00+13e41188100 0.0 1010215
09:00+17e3678100 0.0 1009269
12:00+20nne3371100 0.2 1008564
15:00+23ene3562100 0.3 10051329
18:00+18w679053 2.4 1005312
21:00+14nw499589 4.6 1005285
18 may, tue
tue1800:00+13nw3897100 0.6 1005263
03:00+12wnw3899100 0.9 1006215
06:00+13w3697100 0.0 1006285
09:00+16wsw568560 0.0 1007675
12:00+19sw576826 0.3 10081346
15:00+20sw5755100 0.3 10071787
18:00+17ssw4783100 1.2 1008306
21:00+15sse239477 3.6 100859